QPF
0.00 0.00 0.00 0.00 0.00 0.00 0.00 0.00 0.01 0.01 0.01 0.01 0.01 0.01 0.01 0.01 0.01 0.00 0.00 0.00 0.01 0.01 0.01 0.01 0.01 0.01 0.01 0.01 0.01 0.01 0.01 0.00 0.01 0.01 0.01 0.01 0.01 0.01 0.01 0.00 0.00 0.00 0.01
0.00 0.00 0.00 0.00 0.00 0.00 0.00 0.00 0.00 0.00 0.00 0.00 0.00 0.01 0.01 0.01 0.01 0.01 0.00 0.00 0.00 0.00 0.00 0.01 0.01 0.01 0.01 0.01 0.00 0.00 0.00 0.00 0.00 0.00 0.00 0.00 0.01 0.01 0.01 0.01 0.00 0.00 0.00
0.00 0.00 0.00 0.00 0.00 0.00 0.00 0.00 0.00 0.00 0.00 0.00 0.00 0.00 0.01 0.01 0.01 0.01 0.00 0.00 0.00 0.00 0.00 0.00 0.00 0.00 0.00 0.00 0.00 0.00 0.00 0.00 0.00 0.00 0.00 0.00 0.00 0.01 0.01 0.00 0.00 0.00 0.00
0.00 0.00 0.00 0.00 0.00 0.00 0.00 0.00 0.00 0.00 0.00 0.01 0.00 0.00 0.00 0.00 0.00 0.00 0.00 0.00 0.00 0.00 0.00 0.00 0.00 0.00 0.00 0.00 0.00 0.00 0.00 0.00 0.00 0.00 0.00 0.00 0.00 0.01 0.00 0.00 0.00 0.00 0.00
0.00 0.00 0.00 0.00 0.00 0.00 0.00 0.00 0.00 0.00 0.00 0.01 0.00 0.00 0.00 0.00 0.00 0.00 0.00 0.00 0.00 0.00 0.00 0.00 0.00 0.00 0.00 0.00 0.00 0.00 0.00 0.00 0.00 0.00 0.00 0.00 0.00 0.00 0.00 0.00 0.00 0.00 0.00
0.00 0.00 0.00 0.00 0.00 0.00 0.00 0.00 0.00 0.00 0.01 0.01 0.01 0.01 0.00 0.00 0.00 0.00 0.00 0.00 0.00 0.00 0.00 0.00 0.00 0.00 0.00 0.00 0.00 0.00 0.00 0.00 0.00 0.00 0.00 0.00 0.00 0.00 0.00 0.00 0.00 0.00 0.00
0.00 0.00 0.00 0.00 0.00 0.00 0.00 0.00 0.00 0.01 0.01 0.01 0.01 0.01 0.01 0.00 0.00 0.00 0.00 0.00 0.00 0.00 0.00 0.00 0.00 0.00 0.00 0.00 0.00 0.00 0.00 0.00 0.00 0.00 0.00 0.00 0.00 0.00 0.00 0.00 0.00 0.00 0.00
0.00 0.00 0.00 0.00 0.00 0.00 0.00 0.00 0.00 0.00 0.01 0.01 0.00 0.01 0.01 0.00 0.00 0.00 0.00 0.00 0.00 0.00 0.00 0.00 0.00 0.00 0.00 0.00 0.00 0.00 0.00 0.00 0.00 0.00 0.00 0.00 0.00 0.00 0.00 0.00 0.00 0.00 0.00
0.00 0.00 0.00 0.00 0.00 0.00 0.01 0.00 0.00 0.00 0.01 0.01 0.01 0.01 0.01 0.00 0.00 0.00 0.00 0.00 0.00 0.00 0.00 0.00 0.00 0.00 0.00 0.00 0.00 0.00 0.00 0.00 0.00 0.00 0.00 0.00 0.00 0.00 0.00 0.00 0.00 0.00 0.00
0.00 0.00 0.00 0.00 0.00 0.00 0.00 0.01 0.01 0.01 0.01 0.01 0.01 0.00 0.00 0.00 0.00 0.00 0.00 0.00 0.00 0.00 0.00 0.00 0.00 0.00 0.00 0.00 0.00 0.00 0.00 0.00 0.00 0.00 0.00 0.00 0.00 0.00 0.00 0.00 0.00 0.00 0.00
0.00 0.00 0.00 0.00 0.00 0.00 0.00 0.01 0.01 0.01 0.01 0.01 0.01 0.00 0.00 0.00 0.00 0.00 0.00 0.00 0.00 0.00 0.00 0.00 0.00 0.00 0.00 0.00 0.00 0.00 0.00 0.00 0.00 0.00 0.00 0.00 0.00 0.00 0.00 0.00 0.00 0.00 0.00
0.00 0.00 0.00 0.00 0.00 0.00 0.00 0.00 0.00 0.00 0.00 0.00 0.00 0.00 0.00 0.00 0.00 0.00 0.00 0.00 0.00 0.00 0.00 0.00 0.00 0.00 0.00 0.00 0.00 0.00 0.00 0.00 0.00 0.00 0.00 0.00 0.00 0.00 0.00 0.00 0.00 0.00 0.00
0.00 0.00 0.00 0.00 0.00 0.00 0.00 0.00 0.00 0.00 0.00 0.00 0.00 0.00 0.00 0.00 0.00 0.00 0.00 0.00 0.00 0.00 0.00 0.00 0.00 0.00 0.00 0.00 0.00 0.00 0.00 0.00 0.00 0.00 0.00 0.00 0.00 0.00 0.00 0.00 0.00 0.00 0.00
0.00 0.00 0.00 0.00 0.00 0.00 0.00 0.00 0.00 0.00 0.00 0.00 0.00 0.00 0.00 0.00 0.00 0.00 0.00 0.00 0.00 0.00 0.00 0.00 0.00 0.00 0.00 0.00 0.00 0.00 0.00 0.00 0.00 0.00 0.00 0.00 0.00 0.00 0.00 0.00 0.00 0.00 0.00
0.00 0.00 0.00 0.00 0.00 0.00 0.00 0.00 0.00 0.00 0.00 0.00 0.00 0.00 0.00 0.00 0.00 0.00 0.00 0.00 0.00 0.00 0.00 0.00 0.00 0.00 0.00 0.00 0.00 0.00 0.00 0.00 0.00 0.00 0.00 0.00 0.00 0.00 0.00 0.00 0.00 0.00 0.00
0.00 0.00 0.00 0.00 0.00 0.00 0.00 0.00 0.00 0.00 0.00 0.00 0.00 0.00 0.00 0.00 0.00 0.00 0.00 0.00 0.00 0.00 0.00 0.00 0.00 0.00 0.00 0.00 0.00 0.00 0.00 0.00 0.00 0.00 0.00 0.00 0.00 0.00 0.00 0.00 0.00 0.00 0.00
0.00 0.00 0.00 0.00 0.00 0.00 0.00 0.00 0.00 0.01 0.01 0.01 0.00 0.00 0.00 0.00 0.00 0.00 0.00 0.00 0.00 0.00 0.00 0.00 0.00 0.00 0.00 0.00 0.00 0.00 0.00 0.00 0.00 0.00 0.00 0.00 0.00 0.00 0.00 0.00 0.00 0.00 0.00
0.00 0.00 0.00 0.00 0.00 0.00 0.00 0.00 0.01 0.01 0.01 0.01 0.00 0.00 0.00 0.00 0.00 0.00 0.00 0.00 0.00 0.00 0.00 0.00 0.00 0.00 0.00 0.00 0.00 0.00 0.00 0.00 0.00 0.00 0.00 0.00 0.00 0.00 0.00 0.00 0.00 0.00 0.00
0.00 0.00 0.00 0.00 0.00 0.00 0.00 0.00 0.00 0.01 0.01 0.01 0.00 0.00 0.00 0.00 0.00 0.00 0.00 0.00 0.00 0.00 0.00 0.00 0.00 0.00 0.00 0.00 0.00 0.00 0.00 0.00 0.00 0.00 0.00 0.00 0.00 0.00 0.00 0.00 0.00 0.00 0.00
0.00 0.00 0.00 0.00 0.00 0.00 0.00 0.00 0.00 0.00 0.00 0.00 0.00 0.00 0.00 0.00 0.00 0.01 0.00 0.00 0.00 0.00 0.00 0.00 0.00 0.00 0.00 0.00 0.00 0.00 0.00 0.00 0.00 0.00 0.00 0.00 0.00 0.00 0.00 0.00 0.00 0.00 0.00
0.00 0.00 0.00 0.00 0.00 0.00 0.00 0.00 0.00 0.00 0.00 0.00 0.00 0.00 0.00 0.00 0.00 0.01 0.01 0.01 0.01 0.01 0.01 0.01 0.01 0.01 0.00 0.00 0.00 0.00 0.00 0.00 0.00 0.00 0.00 0.00 0.00 0.00 0.00 0.00 0.00 0.00 0.00
0.00 0.00 0.00 0.00 0.00 0.00 0.00 0.00 0.00 0.00 0.00 0.00 0.00 0.00 0.00 0.00 0.00 0.00 0.00 0.00 0.00 0.00 0.00 0.00 0.00 0.00 0.00 0.00 0.00 0.00 0.00 0.00 0.00 0.00 0.00 0.00 0.00 0.00 0.00 0.00 0.00 0.00 0.00
0.00 0.00 0.00 0.00 0.00 0.00 0.00 0.00 0.00 0.00 0.00 0.00 0.00 0.00 0.00 0.00 0.00 0.00 0.00 0.00 0.00 0.00 0.00 0.00 0.00 0.00 0.00 0.00 0.00 0.00 0.00 0.00 0.00 0.00 0.00 0.00 0.00 0.00 0.00 0.00 0.00 0.00 0.00
0.00 0.00 0.00 0.00 0.00 0.00 0.00 0.00 0.00 0.00 0.00 0.00 0.00 0.00 0.00 0.00 0.00 0.00 0.00 0.00 0.00 0.00 0.00 0.00 0.00 0.00 0.00 0.00 0.00 0.00 0.00 0.00 0.00 0.00 0.00 0.00 0.00 0.00 0.00 0.00 0.00 0.00 0.00
0.00 0.00 0.00 0.00 0.00 0.00 0.00 0.00 0.00 0.00 0.00 0.00 0.00 0.00 0.00 0.00 0.00 0.00 0.00 0.00 0.00 0.00 0.00 0.00 0.00 0.00 0.00 0.00 0.00 0.00 0.00 0.00 0.00 0.00 0.00 0.00 0.00 0.00 0.00 0.00 0.00 0.00 0.00
0.00 0.00 0.00 0.00 0.00 0.00 0.00 0.00 0.00 0.00 0.00 0.00 0.00 0.00 0.00 0.00 0.00 0.00 0.00 0.00 0.00 0.00 0.00 0.00 0.00 0.00 0.00 0.00 0.00 0.00 0.00 0.00 0.00 0.00 0.00 0.00 0.00 0.00 0.00 0.00 0.00 0.00 0.00
MSLP
1018.83 1018.68 1018.64 1018.74 1018.96 1019.26 1019.58 1019.86 1020.08 1020.21 1020.27 1020.31 1020.36 1020.46 1020.61 1020.80 1021.00 1021.17 1021.28 1021.32 1021.28 1021.20 1021.12 1021.04 1021.01 1021.03 1021.07 1021.11 1021.13 1021.12 1021.06 1020.96 1020.83 1020.70 1020.57 1020.47 1020.38 1020.30 1020.22 1020.14 1020.05 1019.95 1019.85
1018.35 1018.30 1018.36 1018.56 1018.87 1019.23 1019.60 1019.91 1020.14 1020.28 1020.36 1020.42 1020.50 1020.64 1020.85 1021.10 1021.35 1021.58 1021.74 1021.82 1021.83 1021.78 1021.72 1021.67 1021.64 1021.65 1021.67 1021.68 1021.67 1021.62 1021.53 1021.41 1021.27 1021.14 1021.03 1020.95 1020.88 1020.82 1020.76 1020.69 1020.60 1020.50 1020.40
1017.81 1017.86 1018.03 1018.33 1018.73 1019.17 1019.60 1019.97 1020.23 1020.40 1020.51 1020.60 1020.72 1020.89 1021.13 1021.41 1021.70 1021.95 1022.13 1022.24 1022.26 1022.24 1022.20 1022.16 1022.14 1022.15 1022.16 1022.16 1022.13 1022.07 1021.97 1021.85 1021.73 1021.62 1021.53 1021.47 1021.43 1021.38 1021.33 1021.25 1021.15 1021.04 1020.93
1017.30 1017.44 1017.70 1018.10 1018.59 1019.12 1019.62 1020.04 1020.35 1020.56 1020.70 1020.82 1020.97 1021.17 1021.42 1021.71 1022.00 1022.25 1022.42 1022.53 1022.56 1022.55 1022.52 1022.50 1022.50 1022.51 1022.53 1022.54 1022.52 1022.47 1022.39 1022.29 1022.20 1022.12 1022.06 1022.02 1021.99 1021.95 1021.88 1021.79 1021.68 1021.55 1021.42
1016.91 1017.11 1017.44 1017.92 1018.49 1019.09 1019.65 1020.11 1020.47 1020.71 1020.88 1021.03 1021.20 1021.41 1021.66 1021.94 1022.21 1022.44 1022.60 1022.69 1022.72 1022.72 1022.70 1022.70 1022.72 1022.77 1022.81 1022.84 1022.85 1022.83 1022.78 1022.72 1022.67 1022.63 1022.60 1022.57 1022.54 1022.48 1022.39 1022.28 1022.14 1021.99 1021.86
1016.68 1016.92 1017.31 1017.84 1018.46 1019.10 1019.68 1020.18 1020.55 1020.82 1021.01 1021.18 1021.36 1021.58 1021.83 1022.09 1022.34 1022.55 1022.69 1022.76 1022.79 1022.79 1022.80 1022.83 1022.88 1022.95 1023.04 1023.10 1023.15 1023.16 1023.16 1023.15 1023.13 1023.11 1023.10 1023.07 1023.02 1022.94 1022.82 1022.68 1022.52 1022.37 1022.23
1016.64 1016.90 1017.32 1017.87 1018.49 1019.13 1019.72 1020.20 1020.57 1020.84 1021.04 1021.22 1021.42 1021.64 1021.90 1022.16 1022.41 1022.60 1022.73 1022.80 1022.83 1022.85 1022.88 1022.93 1023.02 1023.13 1023.24 1023.35 1023.43 1023.49 1023.52 1023.54 1023.54 1023.54 1023.53 1023.49 1023.42 1023.30 1023.15 1022.98 1022.81 1022.65 1022.53
1016.76 1017.02 1017.44 1017.98 1018.58 1019.19 1019.73 1020.18 1020.52 1020.76 1020.96 1021.16 1021.37 1021.62 1021.90 1022.18 1022.43 1022.63 1022.76 1022.84 1022.89 1022.93 1022.98 1023.07 1023.18 1023.32 1023.47 1023.60 1023.71 1023.78 1023.84 1023.87 1023.89 1023.89 1023.86 1023.80 1023.69 1023.55 1023.37 1023.17 1022.99 1022.84 1022.75
1016.96 1017.22 1017.62 1018.14 1018.70 1019.24 1019.72 1020.10 1020.39 1020.61 1020.80 1021.01 1021.26 1021.54 1021.86 1022.17 1022.45 1022.67 1022.82 1022.92 1022.99 1023.05 1023.13 1023.24 1023.38 1023.54 1023.70 1023.84 1023.95 1024.04 1024.09 1024.12 1024.13 1024.12 1024.07 1023.98 1023.84 1023.67 1023.47 1023.26 1023.08 1022.95 1022.87
1017.16 1017.42 1017.82 1018.30 1018.80 1019.28 1019.68 1019.99 1020.23 1020.42 1020.61 1020.83 1021.12 1021.45 1021.81 1022.16 1022.48 1022.73 1022.92 1023.04 1023.13 1023.21 1023.31 1023.43 1023.58 1023.74 1023.90 1024.03 1024.14 1024.21 1024.25 1024.27 1024.26 1024.22 1024.15 1024.03 1023.87 1023.68 1023.46 1023.25 1023.07 1022.96 1022.90
1017.28 1017.56 1017.95 1018.41 1018.87 1019.28 1019.61 1019.86 1020.05 1020.22 1020.42 1020.67 1020.99 1021.37 1021.78 1022.18 1022.53 1022.81 1023.01 1023.15 1023.25 1023.35 1023.45 1023.58 1023.73 1023.88 1024.02 1024.14 1024.23 1024.28 1024.29 1024.29 1024.25 1024.19 1024.10 1023.97 1023.79 1023.59 1023.36 1023.16 1022.98 1022.87 1022.83
1017.27 1017.59 1017.99 1018.44 1018.87 1019.24 1019.52 1019.73 1019.89 1020.06 1020.26 1020.55 1020.91 1021.33 1021.77 1022.20 1022.57 1022.86 1023.06 1023.21 1023.31 1023.41 1023.51 1023.64 1023.78 1023.92 1024.04 1024.14 1024.20 1024.22 1024.21 1024.18 1024.13 1024.05 1023.95 1023.81 1023.63 1023.42 1023.20 1022.99 1022.81 1022.70 1022.65
1017.13 1017.49 1017.92 1018.38 1018.80 1019.14 1019.40 1019.60 1019.76 1019.93 1020.16 1020.48 1020.87 1021.31 1021.77 1022.20 1022.56 1022.84 1023.03 1023.16 1023.26 1023.35 1023.45 1023.56 1023.70 1023.82 1023.93 1024.00 1024.04 1024.04 1024.01 1023.96 1023.90 1023.81 1023.71 1023.57 1023.39 1023.19 1022.97 1022.76 1022.57 1022.44 1022.36
1016.89 1017.29 1017.75 1018.22 1018.65 1018.99 1019.26 1019.46 1019.64 1019.85 1020.11 1020.45 1020.85 1021.30 1021.74 1022.15 1022.48 1022.72 1022.89 1022.99 1023.07 1023.15 1023.25 1023.36 1023.49 1023.61 1023.70 1023.76 1023.78 1023.76 1023.71 1023.65 1023.58 1023.49 1023.39 1023.26 1023.10 1022.90 1022.69 1022.47 1022.27 1022.10 1021.99
1016.62 1017.04 1017.52 1018.00 1018.43 1018.80 1019.08 1019.32 1019.54 1019.78 1020.08 1020.43 1020.84 1021.26 1021.67 1022.02 1022.30 1022.50 1022.62 1022.70 1022.77 1022.84 1022.94 1023.06 1023.19 1023.30 1023.39 1023.43 1023.44 1023.40 1023.34 1023.27 1023.20 1023.12 1023.02 1022.91 1022.76 1022.57 1022.36 1022.13 1021.91 1021.71 1021.55
1016.39 1016.80 1017.27 1017.75 1018.19 1018.57 1018.90 1019.18 1019.44 1019.73 1020.05 1020.41 1020.79 1021.18 1021.53 1021.82 1022.04 1022.18 1022.27 1022.33 1022.39 1022.47 1022.58 1022.71 1022.84 1022.96 1023.04 1023.07 1023.06 1023.01 1022.94 1022.86 1022.78 1022.70 1022.61 1022.51 1022.37 1022.19 1021.98 1021.75 1021.51 1021.28 1021.08
1016.28 1016.65 1017.08 1017.52 1017.96 1018.36 1018.72 1019.04 1019.36 1019.68 1020.02 1020.38 1020.73 1021.06 1021.34 1021.56 1021.72 1021.81 1021.88 1021.93 1022.00 1022.10 1022.23 1022.37 1022.52 1022.63 1022.70 1022.72 1022.68 1022.61 1022.52 1022.42 1022.33 1022.25 1022.17 1022.07 1021.94 1021.78 1021.57 1021.34 1021.09 1020.84 1020.61
1016.33 1016.62 1016.98 1017.38 1017.79 1018.19 1018.58 1018.95 1019.31 1019.67 1020.01 1020.35 1020.66 1020.92 1021.13 1021.29 1021.39 1021.45 1021.50 1021.56 1021.65 1021.78 1021.93 1022.09 1022.24 1022.35 1022.40 1022.40 1022.33 1022.23 1022.11 1021.99 1021.88 1021.79 1021.70 1021.60 1021.48 1021.33 1021.14 1020.91 1020.66 1020.41 1020.17
1016.53 1016.73 1017.00 1017.34 1017.72 1018.12 1018.53 1018.94 1019.33 1019.70 1020.05 1020.35 1020.61 1020.81 1020.95 1021.04 1021.10 1021.14 1021.19 1021.27 1021.38 1021.54 1021.71 1021.88 1022.03 1022.13 1022.16 1022.12 1022.02 1021.88 1021.73 1021.58 1021.45 1021.33 1021.24 1021.13 1021.01 1020.87 1020.69 1020.48 1020.24 1020.00 1019.77
1016.87 1016.97 1017.16 1017.43 1017.77 1018.17 1018.59 1019.02 1019.44 1019.82 1020.15 1020.41 1020.61 1020.74 1020.82 1020.85 1020.88 1020.90 1020.96 1021.06 1021.20 1021.37 1021.56 1021.74 1021.87 1021.94 1021.94 1021.86 1021.73 1021.56 1021.38 1021.20 1021.04 1020.91 1020.79 1020.67 1020.55 1020.41 1020.24 1020.05 1019.84 1019.62 1019.40
1017.28 1017.31 1017.43 1017.64 1017.95 1018.33 1018.76 1019.21 1019.63 1020.01 1020.31 1020.53 1020.67 1020.74 1020.75 1020.74 1020.73 1020.75 1020.81 1020.92 1021.08 1021.26 1021.45 1021.61 1021.72 1021.77 1021.73 1021.62 1021.46 1021.27 1021.06 1020.86 1020.68 1020.52 1020.38 1020.24 1020.11 1019.96 1019.80 1019.62 1019.43 1019.24 1019.04
1017.71 1017.70 1017.77 1017.95 1018.23 1018.61 1019.04 1019.48 1019.90 1020.26 1020.53 1020.70 1020.78 1020.79 1020.75 1020.70 1020.66 1020.66 1020.72 1020.84 1020.99 1021.17 1021.34 1021.47 1021.56 1021.57 1021.51 1021.38 1021.20 1021.00 1020.78 1020.57 1020.37 1020.19 1020.02 1019.86 1019.70 1019.54 1019.37 1019.20 1019.02 1018.84 1018.66
1018.09 1018.08 1018.14 1018.30 1018.57 1018.94 1019.36 1019.80 1020.21 1020.54 1020.77 1020.89 1020.92 1020.87 1020.78 1020.69 1020.63 1020.62 1020.66 1020.76 1020.90 1021.05 1021.19 1021.29 1021.34 1021.32 1021.25 1021.12 1020.95 1020.75 1020.55 1020.34 1020.13 1019.93 1019.73 1019.53 1019.33 1019.14 1018.95 1018.77 1018.59 1018.42 1018.24
1018.39 1018.41 1018.48 1018.64 1018.91 1019.27 1019.69 1020.11 1020.49 1020.79 1020.98 1021.06 1021.04 1020.95 1020.83 1020.71 1020.62 1020.59 1020.61 1020.68 1020.78 1020.89 1020.99 1021.05 1021.07 1021.03 1020.95 1020.84 1020.69 1020.53 1020.34 1020.15 1019.94 1019.72 1019.48 1019.24 1019.00 1018.76 1018.53 1018.32 1018.12 1017.94 1017.76
1018.58 1018.65 1018.75 1018.93 1019.20 1019.55 1019.95 1020.35 1020.71 1020.97 1021.13 1021.18 1021.12 1021.01 1020.87 1020.73 1020.62 1020.57 1020.56 1020.60 1020.65 1020.71 1020.75 1020.77 1020.76 1020.71 1020.64 1020.55 1020.44 1020.31 1020.16 1019.98 1019.77 1019.53 1019.26 1018.96 1018.66 1018.36 1018.08 1017.83 1017.60 1017.40 1017.20
1018.66 1018.79 1018.93 1019.14 1019.41 1019.75 1020.13 1020.51 1020.83 1021.07 1021.21 1021.23 1021.17 1021.04 1020.89 1020.75 1020.64 1020.56 1020.52 1020.51 1020.52 1020.52 1020.51 1020.48 1020.43 1020.38 1020.32 1020.25 1020.18 1020.09 1019.97 1019.81 1019.60 1019.33 1019.01 1018.66 1018.30 1017.94 1017.60 1017.30 1017.03 1016.79 1016.56
Thickness
5722 5722 5721 5718 5715 5713 5712 5710 5709 5708 5706 5705 5704 5703 5702 5701 5700 5700 5699 5699 5699 5698 5698 5698 5698 5697 5697 5697 5697 5698 5698 5698 5698 5698 5699 5699 5700 5700 5700 5700 5701 5702 5703
5729 5723 5721 5717 5714 5711 5709 5708 5706 5704 5703 5701 5700 5699 5698 5697 5696 5695 5694 5694 5693 5693 5692 5692 5691 5691 5690 5690 5691 5691 5691 5691 5690 5690 5690 5691 5692 5693 5693 5693 5694 5695 5696
5729 5724 5720 5716 5712 5710 5707 5705 5703 5701 5699 5698 5696 5695 5693 5692 5691 5690 5689 5688 5687 5686 5686 5685 5684 5684 5683 5683 5683 5684 5684 5683 5683 5682 5683 5684 5685 5686 5686 5686 5687 5688 5688
5729 5724 5720 5715 5711 5708 5705 5702 5700 5698 5696 5694 5692 5691 5689 5688 5686 5685 5684 5683 5681 5680 5680 5679 5678 5677 5677 5676 5676 5676 5676 5676 5675 5675 5675 5676 5677 5678 5678 5679 5679 5680 5681
5727 5723 5718 5714 5710 5706 5703 5700 5698 5695 5693 5691 5689 5687 5685 5683 5682 5680 5678 5677 5676 5675 5674 5673 5672 5671 5671 5670 5670 5669 5669 5668 5668 5668 5669 5669 5670 5671 5671 5671 5672 5673 5673
5726 5722 5717 5713 5708 5705 5701 5698 5695 5693 5690 5688 5685 5683 5681 5679 5677 5675 5673 5672 5671 5669 5668 5667 5666 5665 5665 5664 5663 5663 5662 5662 5661 5662 5662 5662 5663 5664 5664 5664 5665 5665 5666
5725 5720 5716 5712 5707 5703 5700 5696 5693 5690 5687 5685 5682 5680 5677 5675 5673 5670 5668 5667 5665 5664 5663 5662 5660 5659 5659 5658 5657 5657 5656 5656 5655 5655 5655 5656 5657 5658 5658 5658 5658 5658 5658
5723 5718 5714 5710 5706 5702 5698 5694 5691 5687 5684 5682 5679 5676 5674 5671 5668 5666 5664 5662 5660 5659 5657 5656 5655 5654 5653 5652 5652 5651 5651 5650 5649 5649 5649 5649 5650 5651 5651 5651 5651 5651 5652
5718 5715 5711 5708 5703 5699 5695 5692 5688 5685 5682 5679 5676 5673 5670 5667 5664 5662 5659 5657 5655 5654 5652 5651 5650 5649 5648 5647 5646 5646 5645 5645 5644 5643 5643 5643 5644 5644 5645 5645 5645 5645 5645
5714 5711 5708 5705 5701 5697 5693 5689 5685 5682 5678 5675 5672 5669 5666 5663 5660 5657 5655 5653 5651 5649 5647 5646 5645 5644 5643 5642 5641 5641 5640 5639 5639 5638 5638 5638 5638 5639 5639 5639 5639 5639 5640
5709 5707 5704 5701 5697 5693 5689 5685 5682 5678 5675 5672 5669 5665 5662 5659 5656 5653 5651 5648 5646 5644 5642 5641 5640 5639 5638 5637 5636 5635 5635 5634 5633 5633 5633 5632 5633 5633 5634 5634 5634 5635 5635
5706 5704 5702 5698 5694 5690 5686 5682 5678 5674 5671 5668 5665 5661 5658 5655 5652 5649 5646 5644 5642 5640 5638 5637 5635 5634 5633 5632 5631 5630 5629 5629 5628 5628 5627 5627 5628 5629 5629 5630 5630 5630 5631
5708 5703 5700 5696 5692 5687 5683 5679 5675 5671 5667 5664 5661 5657 5654 5650 5647 5644 5642 5640 5637 5635 5633 5632 5630 5629 5627 5626 5625 5624 5624 5623 5623 5622 5622 5622 5622 5623 5624 5625 5626 5626 5627
5705 5702 5698 5694 5689 5685 5680 5676 5671 5667 5663 5660 5656 5653 5650 5646 5643 5640 5638 5635 5633 5631 5629 5627 5625 5624 5622 5621 5620 5619 5618 5618 5617 5617 5617 5617 5617 5618 5619 5620 5621 5621 5622
5703 5700 5697 5692 5687 5682 5677 5673 5668 5664 5660 5656 5653 5649 5646 5643 5639 5636 5633 5631 5628 5626 5624 5622 5620 5618 5617 5616 5614 5613 5613 5612 5612 5612 5611 5611 5611 5612 5613 5614 5615 5616 5617
5702 5699 5695 5690 5686 5680 5675 5670 5665 5661 5657 5653 5649 5646 5643 5639 5636 5632 5629 5626 5624 5621 5619 5617 5615 5613 5612 5610 5609 5609 5608 5607 5607 5607 5607 5606 5606 5606 5607 5608 5609 5610 5610
5700 5697 5693 5688 5683 5677 5672 5667 5662 5658 5653 5649 5646 5642 5639 5635 5632 5628 5625 5622 5620 5617 5615 5612 5610 5608 5606 5605 5604 5604 5603 5603 5602 5602 5601 5601 5601 5600 5600 5601 5601 5602 5603
5697 5693 5689 5685 5679 5674 5669 5664 5659 5654 5649 5645 5641 5638 5634 5631 5628 5624 5620 5618 5615 5612 5610 5607 5605 5602 5601 5599 5599 5599 5598 5597 5597 5596 5596 5596 5595 5595 5594 5594 5594 5595 5595
5692 5688 5684 5680 5674 5669 5664 5659 5654 5649 5645 5641 5637 5633 5630 5626 5623 5619 5616 5613 5610 5607 5604 5602 5599 5597 5595 5594 5593 5593 5592 5591 5591 5591 5591 5591 5590 5589 5589 5588 5587 5587 5587
5685 5682 5678 5674 5669 5664 5658 5653 5648 5643 5639 5635 5631 5627 5624 5620 5617 5614 5610 5607 5605 5601 5598 5595 5593 5591 5589 5587 5587 5587 5586 5586 5586 5585 5585 5585 5584 5583 5582 5581 5580 5579 5579
5676 5674 5670 5666 5662 5657 5651 5645 5640 5635 5631 5627 5624 5621 5618 5614 5611 5608 5605 5601 5598 5595 5592 5589 5587 5584 5581 5579 5577 5578 5580 5580 5580 5580 5579 5577 5576 5575 5574 5573 5571 5570 5570
5667 5665 5662 5659 5655 5651 5646 5640 5635 5629 5624 5621 5617 5614 5611 5608 5605 5602 5598 5595 5592 5588 5585 5582 5579 5575 5573 5570 5566 5566 5568 5570 5570 5572 5570 5568 5567 5566 5564 5563 5561 5560 5560
5658 5656 5655 5651 5647 5643 5639 5633 5627 5621 5616 5612 5609 5606 5603 5601 5597 5594 5591 5588 5584 5581 5577 5574 5571 5567 5564 5561 5556 5553 5553 5557 5557 5563 5562 5560 5557 5555 5553 5551 5550 5549 5548
5650 5648 5646 5643 5639 5635 5631 5626 5620 5613 5608 5604 5600 5597 5595 5592 5589 5586 5583 5579 5576 5572 5569 5565 5563 5559 5555 5551 5548 5544 5542 5542 5541 5549 5551 5549 5547 5545 5543 5541 5539 5538 5536
5642 5639 5637 5634 5630 5626 5622 5618 5612 5605 5600 5596 5592 5589 5586 5583 5580 5577 5574 5570 5567 5563 5560 5557 5553 5550 5546 5542 5539 5535 5532 5529 5526 5526 5536 5537 5535 5534 5532 5530 5528 5526 5524
5633 5630 5628 5625 5620 5617 5613 5608 5603 5598 5592 5588 5583 5579 5576 5573 5571 5568 5565 5561 5557 5554 5550 5548 5544 5540 5537 5533 5530 5526 5522 5519 5516 5513 5516 5521 5523 5524 5521 5519 5516 5513 5511